Location: Doussal
(55.6167°N, 116.8333°W)
Time: 03:36:59
(UTC+00:00)

METEOR M2 - Pass Details

Date: 16 December 2023
Orbit: 818 x 826 km, 98.4° (Epoch: 25 February)

Event Time Altitude Azimuth Distance (km) Brightness Sun altitude
Rises 13:01:09 0° 20° (NNE) 3,372 ? -24.9°
Reaches altitude 10° 13:03:44 10° 29° (NNE) 2,433 ? -24.5°
Maximum altitude 13:08:38 35° 95° (E) 1,306 ? -23.8°
Drops below altitude 10° 13:13:30 10° 160° (SSE) 2,413 ? -23.1°
Sets 13:16:03 0° 169° (S) 3,340 ? -22.8°
